Location: Pasadena, ca
(34.1243°N, 118.1037°W)
Time: 08:57:50
(UTC-07:00)

N. Korean satellite - Visible Passes

Search period start: 24 September 2017 00:00
Search period end: 04 October 2017 00:00
Orbit: 461 x 516 km, 97.2° (Epoch: 23 September)

Date Brightness Start Highest point End Pass type
(mag) Time Alt. Az. Time Alt. Az. Time Alt. Az.
24 Sep 8.4 19:29:21 10° SSW 19:32:50 37° W 19:36:19 10° NNW visible
25 Sep 6.8 19:05:52 10° S 19:09:36 81° WSW 19:13:20 10° NNW visible
27 Sep 9.8 19:54:12 10° SW 19:56:47 18° W 19:59:21 10° NW visible
28 Sep 8.5 19:30:01 10° SSW 19:33:29 35° W 19:36:54 10° NNW visible
29 Sep 6.8 19:06:31 10° S 19:10:14 79° W 19:13:56 10° NNW visible
01 Oct 9.8 19:54:53 10° SW 19:57:23 17° W 19:59:52 10° NW visible
02 Oct 8.5 19:30:40 10° SSW 19:34:04 34° W 19:37:26 10° NNW visible
03 Oct 6.8 19:07:08 10° S 19:10:49 76° W 19:14:28 10° NNW visible
